DW5160 Weather Reports


time (UTC)temp
C
wind
direction
speed
KPH
gust
KPH
rain 1hr
cm
rain 24hr
cm
rain mn
cm
humidity
%
barometer
mb
20260503200003 15 268 4.8 22.5 0.00 0.00 0.00 39 1014.3
20260503194601 15 263 0.0 16.1 0.00 0.00 0.00 40 1014.4
20260503193111 15 209 0.0 22.5 0.00 0.00 0.00 41 1014.7
20260503191559 15 195 8.0 20.9 0.00 0.00 0.00 39 1014.9
20260503190106 15 315 8.0 25.7 0.00 0.00 0.00 39 1015.2
20260503184553 15 275 9.7 24.1 0.00 0.00 0.00 41 1015.4
20260503183059 15 314 8.0 32.2 0.00 0.00 0.00 41 1015.5
20260503181549 15 256 8.0 24.1 0.00 0.00 0.00 41 1015.6
20260503180055 14 197 4.8 19.3 0.00 0.00 0.00 42 1015.8
20260503174544 14 198 4.8 24.1 0.00 0.00 0.00 42 1016.2
20260503173104 14 250 4.8 19.3 0.00 0.00 0.00 42 1016.3
20260503171546 13 224 4.8 25.7 0.00 0.00 0.00 43 1016.4
20260503081502 -1 300 0.0 0.0 0.00 0.03 0.00 85 1017.1
20260503071607 0 300 0.0 0.0 0.00 0.03 0.00 84 1016.9
20260503054545 1 300 0.0 0.0 0.00 0.03 0.00 84 1017.1
20260503053046 1 300 0.0 0.0 0.00 0.03 0.00 84 1017.2
20260503051550 1 300 0.0 0.0 0.00 0.03 0.00 84 1017.2
20260503050042 1 300 0.0 0.0 0.00 0.03 0.00 84 1017.3
20260503044541 1 300 0.0 0.0 0.00 0.03 0.00 84 1017.4
20260503043039 1 300 0.0 0.0 0.00 0.03 0.00 83 1017.4
20260503041539 1 300 0.0 0.0 0.00 0.03 0.00 83 1017.4
20260503040037 1 300 0.0 0.0 0.00 0.03 0.00 83 1017.5
20260503034537 1 300 0.0 0.0 0.00 0.03 0.03 82 1017.5
20260503033043 1 300 0.0 0.0 0.00 0.03 0.03 82 1017.5
20260503031535 2 300 0.0 0.0 0.00 0.03 0.03 81 1017.4
20260503030035 2 300 0.0 0.0 0.00 0.03 0.03 80 1017.5
20260503024537 2 300 0.0 0.0 0.00 0.03 0.03 80 1017.5
20260503023033 3 300 0.0 0.0 0.00 0.03 0.03 80 1017.6
20260503021533 3 300 0.0 0.0 0.00 0.03 0.03 79 1017.6
20260503020034 3 300 0.0 0.0 0.00 0.03 0.03 79 1017.6
20260503014549 3 300 0.0 0.0 0.00 0.03 0.03 78 1017.6
20260503013036 4 300 0.0 0.0 0.00 0.03 0.03 77 1017.6
20260503011534 4 300 0.0 0.0 0.00 0.03 0.03 74 1017.7
20260503010041 5 300 0.0 0.0 0.00 0.03 0.03 74 1017.5
20260503004530 5 300 0.0 0.0 0.00 0.05 0.03 73 1017.3
20260503003029 5 300 0.0 0.0 0.00 0.05 0.03 69 1017.2
20260503001529 5 300 0.0 0.0 0.00 0.05 0.03 70 1017.2
20260503000029 5 300 0.0 0.0 0.00 0.05 0.03 71 1017.1
20260502234529 5 300 0.0 0.0 0.00 0.05 0.03 67 1016.9
20260502233028 5 300 0.0 0.0 0.00 0.05 0.03 65 1016.9
20260502231527 6 300 0.0 0.0 0.00 0.05 0.03 64 1016.9
20260502230027 6 300 0.0 9.7 0.00 0.05 0.03 63 1016.9
20260502224526 6 301 0.0 0.0 0.00 0.13 0.03 63 1016.8
20260502223026 6 301 0.0 0.0 0.00 0.13 0.03 65 1016.8
20260502221524 6 301 0.0 8.0 0.00 0.13 0.03 65 1016.8
20260502220026 6 306 0.0 8.0 0.00 0.13 0.03 67 1016.8
20260502214524 6 311 0.0 1.6 0.00 0.25 0.03 65 1016.7
20260502213022 6 313 0.0 3.2 0.00 0.25 0.03 67 1016.7
20260502211535 6 312 0.0 6.4 0.00 0.25 0.03 70 1016.6
20260502210023 6 312 0.0 0.0 0.00 0.25 0.03 72 1016.5
20260502204521 5 312 0.0 4.8 0.00 0.28 0.03 71 1016.6
20260502203020 6 312 0.0 1.6 0.00 0.28 0.03 72 1016.6
20260502201520 6 312 0.0 14.5 0.00 0.28 0.03 71 1016.7